Regional Weather Roundup
Issued by NWS State College, PA

Home | Current Version | Previous Version | Text Only | Print | Product List | Glossary Off
Versions: 1 2 3 4 5 6 7 8 9 10 11 12 13 14 15 16 17 18 19 20 21 22 23 24 25 26 27 28 29 30 31 32 33 34 35 36 37 38 39 40 41 42 43 44 45 46 47 48 49 50

000
ASUS41 KCTP 211910
RWRCTP
NATIONAL WEATHER SERVICE STATE COLLEGE PA
300 PM EDT THU SEP 21 2017

Note: "fair" indicates few or no clouds below 12,000 feet with no
significant weather and/or obstructions to visibility.

* = STATION THAT DOES NOT REPORT PRECIPITATION /E.G. RAIN...SNOW...ETC/
    THUNDER OR FOG.

PAZ002>004-007>009-013>016-020>023-029>032-212000-
WESTERN PENNSYLVANIA

CITY           SKY/WX    TMP DP  RH WIND       PRES   REMARKS
ERIE           SUNNY     80  65  59 N7        30.10F
MEADVILLE      MOSUNNY   83  60  45 NW3       30.12F
FRANKLIN*      SUNNY     82  61  48 VRB5      30.13F
NEW CASTLE     FAIR      86  65  49 CALM      30.10F
BEAVER COUNTY  PTSUNNY   84  61  45 CALM      30.11F
BUTLER*        MOSUNNY   83  63  50 E7        30.11F
PITTSBURGH INT MOSUNNY   84  61  45 E3        30.09F
PITTSBURGH     PTSUNNY   82  60  47 VRB5      30.10F
INDIANA*       SUNNY     82  57  42 NW3       30.13F
LATROBE        MOSUNNY   81  59  47 VRB7      30.11F
WASHINGTON CO* PTSUNNY   81  63  54 CALM      30.11S
$$

PAZ004>006-010>012-017>019-024>028-033>037-041-042-045-046-049>053-212000-
CENTRAL PENNSYLVANIA

CITY           SKY/WX    TMP DP  RH WIND       PRES   REMARKS
BRADFORD       SUNNY     80  55  42 VRB3      30.15F
DUBOIS         SUNNY     80  52  37 VRB6      30.12F
CLEARFIELD     SUNNY     83  53  35 NW6       30.12S
JOHNSTOWN      SUNNY     80  58  46 N6        30.14F
ALTOONA        SUNNY     81  60  48 E6        30.11F
STATE COLLEGE  MOSUNNY   81  61  50 CALM      30.10F
WILLIAMSPORT   SUNNY     85  65  51 SW10      30.03F
SELINSGROVE    SUNNY     85  66  53 NW5       30.04F
FT INDIANTOWN  MOSUNNY   84  64  50 N10       30.03F
CAPITAL CITY   SUNNY     86  62  44 NW8       30.03F
HARRISBURG     MOSUNNY   85  67  54 W8        30.02F
YORK           SUNNY     82  64  54 NW7       30.04F
$$

PAZ038>040-043-044-047-048-054-055-060>062-067>071-212000-
EASTERN PENNSYLVANIA

CITY           SKY/WX    TMP DP  RH WIND       PRES   REMARKS
SCRANTON       CLOUDY    82  63  52 CALM      30.05F
MOUNT POCONO   MOSUNNY   79  55  43 N7        30.08F
ALLENTOWN      MOSUNNY   86  62  44 CALM      30.01S
QUAKERTOWN*    PTCLDY    82  64  54 N5        30.03S
READING        SUNNY     87  65  47 NW8       30.00F
LANCASTER      MOSUNNY   84  64  50 N7        30.02F
COATESVILLE    CLEAR     82  64  54 N9        30.04F
POTTSTOWN      SUNNY     84  62  47 N6        30.02F
BLUE BELL      MOSUNNY   82  64  54 CALM      30.01F
DOYLESTOWN     MOSUNNY   85  63  47 VRB5      30.01S
WILLOW GROVE   NOT AVBL
NORTH PHILA    MOSUNNY   86  63  45 NE12G17   30.00F
PHILADELPHIA   PTSUNNY   86  60  41 N8        29.99S
$$




USA.gov is the U.S. government's official web portal to all federal, state and local government web resources and services.